RH
43 42 40 39 39 39 40 41 42 43 44 44 44 42 41 40 39 39 39 39 38 38 38 38 38 37 37 36 34 33 30 28 26 25 23 22 21 21 20 20 19 19 18 18 18 18 18 18 18 18 19 20 20 21 21 21 21 21 22 23 23 24 24 24 24 25 24 24 24 24 24 24 24 25 26 27 28 30 33 36 39 41 43 44 46
45 44 44 46 46 47 48 48 48 48 48 48 47 46 45 43 42 41 40 40 39 38 38 38 38 37 36 35 34 33 32 30 29 27 25 24 23 22 21 21 20 20 20 19 19 19 18 18 18 18 18 19 19 20 20 20 21 21 21 22 22 23 23 24 25 26 26 26 27 27 27 27 27 26 26 26 26 25 25 26 26 26 26 26 26
51 53 56 57 57 56 56 55 55 54 53 52 50 49 48 45 44 43 41 41 40 38 38 37 36 36 35 34 33 31 31 30 28 27 26 26 25 24 24 23 22 22 21 21 21 20 20 20 20 20 19 19 19 19 20 20 20 20 20 21 21 21 22 22 23 24 24 25 26 26 27 27 27 27 27 27 27 27 28 27 27 27 27 27 27
60 63 66 68 67 65 63 61 60 58 57 56 54 53 51 49 48 46 45 44 42 41 40 38 36 35 33 32 31 30 29 28 27 26 25 25 24 24 24 24 24 24 23 23 23 22 23 22 22 22 21 21 21 20 20 20 20 20 20 21 21 21 21 21 22 22 22 23 23 24 25 25 26 26 27 27 27 27 27 27 27 27 27 27 28
66 69 72 74 75 74 72 70 68 66 64 63 61 59 57 55 53 51 49 47 45 43 41 38 36 33 31 30 28 27 26 25 25 24 23 23 23 22 22 22 22 23 23 23 23 23 23 23 23 23 23 23 23 22 22 22 21 21 21 21 21 21 21 21 21 22 22 22 23 23 24 24 25 25 26 26 27 27 27 27 28 27 27 27 27
68 70 72 73 74 74 74 74 73 73 72 71 70 67 63 61 58 56 52 48 44 40 36 33 31 28 26 25 24 23 23 22 22 21 21 21 21 21 20 20 20 20 21 21 22 22 22 22 23 23 23 24 24 24 24 23 23 23 22 22 22 22 22 22 22 22 22 23 23 23 24 24 25 25 26 26 27 28 28 29 29 29 29 29 28
63 64 64 65 66 67 69 71 72 74 75 76 77 75 72 67 62 58 52 46 39 33 29 25 22 21 20 19 18 18 18 18 17 17 17 17 17 18 18 18 18 18 18 19 20 20 21 21 21 21 22 22 23 23 24 24 24 23 23 23 23 23 23 23 23 23 23 24 24 24 24 25 25 26 26 27 28 28 28 29 29 29 29 29 29
55 56 56 57 59 61 64 68 72 75 75 75 74 72 69 64 60 56 51 46 39 33 28 26 23 21 19 17 17 16 15 15 15 15 15 15 15 15 16 16 16 17 17 17 18 19 19 20 20 20 20 21 21 22 22 23 23 23 23 23 23 23 23 23 24 24 24 24 25 25 26 27 27 28 28 28 29 29 29 29 29 29 28 28 28
53 53 55 56 58 61 64 67 71 73 73 71 69 67 65 62 59 57 54 50 46 41 37 34 31 28 25 22 20 18 17 17 16 16 16 16 16 16 16 16 17 17 17 17 17 18 18 19 19 19 20 20 20 21 21 21 22 22 23 23 23 24 24 24 25 25 25 25 26 27 27 28 28 29 29 29 30 30 29 30 30 29 29 28 27
58 60 62 64 65 66 68 69 72 73 74 74 73 72 69 65 61 57 54 51 48 44 40 37 34 31 28 25 23 21 20 19 18 18 17 17 17 17 16 17 17 17 17 17 17 18 18 18 18 19 19 20 20 20 21 21 22 22 23 24 24 25 25 25 26 26 26 27 27 28 29 29 29 30 30 30 30 30 30 29 30 29 29 28 26
69 72 73 74 75 76 77 78 78 78 78 76 73 70 66 61 57 53 50 47 44 41 37 34 32 29 27 25 23 21 20 19 19 18 18 17 17 17 17 16 16 17 17 17 17 17 17 18 18 18 19 19 20 20 21 21 22 22 23 24 25 25 26 26 26 27 28 28 28 29 29 29 29 29 29 29 29 29 29 28 28 28 27 27 25
79 81 83 83 84 85 85 84 82 80 76 72 67 63 58 55 51 48 44 41 38 35 32 30 29 27 26 24 23 21 20 19 19 18 17 17 17 16 16 16 16 16 16 16 16 16 16 17 17 18 18 19 19 20 20 21 21 22 22 23 24 24 25 25 26 26 26 27 27 28 28 28 28 28 28 27 27 26 26 26 25 25 25 24 23
87 89 89 87 85 84 83 81 78 74 70 65 60 55 51 47 44 40 38 35 33 31 29 28 27 26 25 24 22 21 20 19 18 17 17 16 15 15 14 14 14 14 13 14 14 14 15 15 15 16 16 17 17 18 18 19 19 20 20 20 21 22 22 23 23 24 24 25 25 25 25 25 25 25 25 25 25 24 23 23 23 23 22 22 21
88 88 87 85 82 80 77 74 70 66 61 56 51 46 42 40 37 35 34 32 30 29 28 28 27 26 25 24 22 21 19 18 17 15 15 14 13 13 12 12 12 11 11 12 12 12 13 13 13 14 14 15 15 16 16 16 17 17 18 18 18 19 19 20 20 21 21 21 22 22 22 22 22 22 22 22 22 21 21 21 21 21 21 20 20
86 84 82 81 78 75 71 66 61 56 51 46 43 40 38 36 34 33 31 30 29 28 28 28 27 26 24 23 21 19 17 15 14 13 12 12 11 11 10 10 10 10 10 10 11 11 11 12 12 12 13 13 13 14 14 14 15 16 16 16 16 17 17 17 17 18 18 19 19 19 19 20 19 20 20 20 20 20 20 20 20 21 21 21 20
83 80 77 74 71 67 63 58 53 48 44 41 39 38 36 34 32 31 30 30 29 29 28 27 26 23 21 19 17 15 14 13 12 11 11 10 10 10 9 9 9 9 10 10 10 10 10 11 11 11 12 12 12 13 13 13 14 14 14 15 15 15 16 16 16 16 16 17 17 17 18 18 18 18 18 19 19 19 20 20 21 21 22 23 23
78 74 71 68 65 62 57 53 48 44 41 39 38 37 35 32 31 30 31 31 30 28 26 24 22 19 17 15 13 12 11 10 10 10 10 9 9 9 8 9 8 9 9 9 9 10 10 10 11 11 12 12 12 13 13 13 14 14 14 15 15 15 15 15 16 16 16 17 17 17 18 18 18 19 20 20 21 22 23 24 24 24 25 26 26
74 73 72 69 64 59 54 50 46 43 41 39 38 36 34 32 31 32 32 31 28 25 22 19 17 15 13 12 11 10 9 9 8 8 8 8 8 8 8 8 8 9 9 9 10 10 11 11 11 12 12 13 13 13 14 14 14 15 15 15 15 16 16 16 17 18 18 19 19 20 21 21 22 23 23 24 25 25 26 27 27 27 26 26 26
79 78 75 69 63 58 53 49 46 43 41 40 38 36 34 32 32 32 31 28 23 20 17 15 14 12 11 10 9 8 8 7 7 7 7 7 7 7 8 8 8 9 10 11 11 12 12 13 13 14 14 14 15 15 15 16 16 16 17 17 18 19 19 20 21 21 22 23 23 24 25 25 25 25 25 25 25 25 25 25 25 26 26 26 25
82 77 72 67 62 57 52 48 45 43 41 40 38 36 34 33 33 31 27 23 19 16 14 13 11 10 9 8 8 7 7 6 6 6 6 6 6 6 7 8 9 11 11 12 13 14 15 15 15 16 17 17 17 17 17 18 18 19 19 20 21 22 22 23 24 24 25 26 26 26 26 26 26 26 25 25 25 25 26 26 27 28 28 28 28
77 72 68 65 61 56 51 47 44 42 41 40 39 37 35 33 31 27 23 19 16 14 13 11 10 9 8 7 6 6 6 5 6 6 5 6 6 6 7 8 9 11 13 14 16 16 17 18 18 19 19 20 21 21 22 22 22 22 23 24 24 25 25 26 26 26 27 27 28 28 29 28 28 29 29 30 30 31 31 31 32 32 32 31 30
75 72 69 65 60 55 50 47 44 42 42 41 40 37 34 32 28 24 20 17 15 13 11 9 8 7 6 6 6 5 6 5 5 6 6 6 6 6 7 8 9 12 14 15 17 18 19 20 21 22 24 26 27 28 28 28 28 28 29 29 30 30 30 31 31 32 33 33 33 34 34 34 35 35 35 36 37 37 37 36 35 34 33 32 29
78 75 70 64 59 54 50 46 44 43 44 43 40 37 34 30 25 21 19 17 14 12 10 8 7 6 6 6 6 6 6 6 6 6 6 6 7 7 7 8 10 12 14 15 17 19 21 23 25 28 30 32 33 34 34 35 35 36 36 37 37 38 38 39 40 41 41 41 41 41 42 42 42 42 41 40 40 39 38 36 34 32 30 27 24
77 72 67 62 57 53 48 46 46 47 46 43 40 37 32 27 23 20 18 15 12 10 8 7 6 6 6 6 6 6 6 6 6 7 7 7 7 7 8 9 10 12 14 16 18 21 23 26 29 32 34 35 36 38 39 40 42 42 43 43 44 44 45 46 46 46 46 46 46 46 46 46 46 44 42 39 37 35 33 31 29 26 24 22 18
72 67 63 58 55 51 48 49 50 50 47 43 40 36 30 25 22 20 17 14 11 9 8 7 7 7 7 7 7 7 7 7 7 7 7 8 8 8 9 10 12 14 17 19 21 23 26 29 32 34 36 37 38 40 42 43 45 46 46 47 48 48 49 49 49 48 48 47 47 47 47 46 44 42 39 35 33 32 30 28 25 22 19 18 15
68 64 60 56 53 51 52 54 53 50 47 43 38 33 28 25 22 19 16 13 10 8 7 7 7 7 8 8 8 8 8 8 8 8 8 9 9 9 10 12 14 17 20 22 24 26 28 30 32 34 35 37 38 39 41 42 44 45 47 48 49 49 49 49 49 48 48 48 47 47 45 43 41 38 35 32 30 28 27 26 24 21 18 16 15
67 63 59 56 54 55 57 58 55 50 45 40 36 31 28 25 22 18 14 11 9 8 8 8 8 9 9 9 9 9 8 8 9 9 9 9 10 10 12 14 17 20 22 24 26 28 30 31 33 33 34 36 37 38 40 41 43 44 46 47 48 49 48 48 48 47 47 46 45 44 42 39 37 34 30 28 25 24 24 24 23 21 18 17 17
66 62 59 58 59 61 61 59 54 48 42 38 34 31 28 25 21 17 13 10 9 9 9 9 10 10 10 10 10 10 9 9 9 9 9 10 11 12 14 16 19 22 25 27 29 31 32 33 33 34 34 35 36 38 39 40 41 43 44 45 46 46 46 45 45 44 43 42 40 39 36 33 31 29 27 26 25 23 22 22 20 19 19 18 18
65 62 61 62 64 65 63 58 52 46 40 36 33 31 28 24 19 14 11 9 9 9 10 11 11 11 12 12 11 10 10 10 10 10 11 12 12 14 16 19 22 24 26 29 31 32 33 33 34 34 34 34 35 36 37 38 39 40 41 42 42 42 42 41 40 39 38 37 36 34 33 31 31 30 29 29 26 23 22 21 20 20 19 18 17
66 65 65 67 68 67 62 56 49 43 39 37 34 31 28 22 17 13 10 9 9 10 11 12 12 13 13 13 12 11 11 11 11 12 13 14 15 17 19 21 25 28 30 31 33 34 34 35 35 35 35 35 36 37 38 38 39 39 39 39 40 40 39 39 38 37 37 37 37 36 36 36 34 32 30 29 27 24 23 21 20 19 17 16 15
69 69 70 71 69 65 59 53 47 43 40 38 35 31 26 19 14 11 9 9 10 11 12 13 14 14 15 14 14 13 12 12 13 13 15 16 18 21 23 26 29 32 33 34 35 35 35 36 36 36 36 37 38 39 39 38 38 38 39 40 40 40 40 40 40 40 40 40 40 39 38 36 35 32 30 29 29 28 26 22 19 17 15 14 13
73 73 73 71 67 62 56 51 46 43 41 38 34 29 23 16 12 10 10 10 11 12 13 14 15 16 16 15 14 14 13 13 14 15 17 19 21 24 26 29 31 33 34 36 36 36 37 37 36 36 37 37 38 39 39 39 39 39 40 42 43 43 44 44 44 44 44 43 41 39 36 34 33 32 31 31 31 29 24 20 17 15 14 12 10
76 75 72 69 65 60 54 49 45 43 41 37 32 26 19 14 11 10 10 11 13 14 14 15 16 17 17 16 15 14 14 14 14 15 18 20 22 23 26 29 33 36 38 39 39 39 39 39 37 36 37 38 39 39 40 40 41 42 43 44 46 47 48 48 48 47 46 44 41 37 34 33 33 34 33 30 26 23 20 17 15 13 11 10 9
77 74 71 67 63 58 52 48 45 42 39 35 29 22 16 12 11 11 11 13 14 15 15 16 18 18 18 17 16 15 15 15 16 17 19 21 23 26 29 34 38 41 42 43 43 42 40 39 38 38 39 40 40 41 42 44 45 46 47 48 49 50 51 51 50 47 44 41 38 35 34 34 34 33 30 25 21 19 17 14 12 11 10 10 10
77 73 69 65 59 54 50 46 43 39 35 31 25 18 13 12 11 11 13 15 16 16 16 17 18 19 18 17 17 16 16 17 19 20 21 23 26 30 34 38 41 43 45 45 44 41 40 39 39 39 40 42 42 43 46 48 50 50 51 52 52 53 52 51 48 45 41 39 37 35 34 32 30 27 25 22 19 16 13 11 10 11 11 11 10
75 71 67 61 55 51 47 43 39 35 31 27 20 15 13 12 12 13 15 16 16 17 18 19 20 19 18 17 17 17 17 18 20 22 25 28 31 35 39 43 46 47 47 46 44 42 41 41 40 40 42 44 46 48 51 54 54 54 55 55 54 53 51 49 47 44 41 37 34 32 29 27 25 23 20 17 15 12 11 11 12 11 11 11 11
73 68 63 57 52 48 43 38 34 31 27 22 16 14 13 12 13 15 17 17 17 18 20 21 21 20 18 18 18 19 19 19 21 23 26 30 34 38 42 46 48 48 47 46 45 45 44 42 41 42 44 46 49 52 54 55 56 56 56 55 52 50 48 47 45 42 37 32 28 26 25 23 20 17 15 14 13 12 11 12 12 12 11 12 12
68 63 57 52 47 41 36 33 30 27 22 17 14 14 13 14 15 18 18 18 17 19 21 22 22 21 20 19 19 21 22 22 22 25 27 31 34 37 39 41 43 45 47 46 44 42 41 40 41 43 46 49 51 52 54 56 57 56 53 50 47 45 44 43 40 35 30 27 25 24 22 18 15 13 13 13 13 13 12 12 12 13 13 13 12
62 57 51 45 39 34 31 29 25 21 17 14 14 14 14 15 18 20 19 18 18 20 22 23 22 22 21 20 20 22 24 24 25 27 29 30 32 33 35 38 42 45 46 43 40 38 39 41 43 46 49 50 50 51 52 53 53 50 47 44 42 41 39 37 34 30 27 26 24 21 17 14 13 13 14 14 14 13 13 13 14 14 14 13 12
54 48 42 36 32 29 27 24 19 16 15 14 14 15 16 18 21 21 20 19 20 21 24 25 24 23 22 22 22 22 24 26 27 29 29 29 30 32 36 40 44 44 42 41 40 40 41 44 45 46 47 47 46 46 45 44 43 41 40 39 37 35 34 33 32 30 27 24 20 16 13 13 15 15 15 14 13 14 15 15 15 15 14 13 12
43 38 34 30 28 25 22 18 15 14 14 14 15 16 18 20 22 21 20 20 22 23 25 27 27 27 25 24 23 22 23 25 27 28 29 30 31 34 38 40 40 39 39 40 41 41 42 43 44 45 44 43 41 39 38 36 36 36 36 36 35 33 32 31 30 27 23 19 15 14 14 15 16 16 15 15 15 15 16 16 15 14 13 12 11
34 31 29 26 23 19 16 14 14 14 14 15 16 17 19 21 22 21 21 22 24 26 28 29 29 29 27 26 24 23 23 24 26 28 31 32 33 35 36 35 35 37 39 40 40 40 40 42 42 42 40 39 37 36 35 36 37 37 37 36 35 32 30 28 25 21 19 16 15 15 16 16 16 16 16 16 17 16 16 15 14 13 12 11 11
28 26 23 20 17 15 14 14 15 15 16 16 18 19 21 22 21 21 22 24 26 27 29 29 30 30 29 27 26 25 25 26 28 29 30 31 32 34 35 36 37 38 39 39 40 40 41 41 40 39 38 38 37 37 38 39 40 39 37 35 32 29 26 23 20 18 18 17 16 16 17 17 17 18 18 17 17 16 15 14 12 12 12 12 14
22 19 17 15 14 14 14 15 16 16 17 18 20 21 21 21 21 22 23 24 26 27 28 29 30 30 29 29 28 27 27 27 27 27 28 30 34 38 39 39 37 37 38 40 41 41 40 40 40 39 39 39 39 40 41 41 40 37 34 31 27 23 21 20 19 19 18 18 17 17 17 18 19 19 18 17 16 15 14 13 13 13 14 15 16
16 14 14 14 14 14 15 16 17 18 19 20 21 21 21 21 21 22 23 24 26 27 27 29 30 30 30 31 31 30 29 27 26 27 30 33 36 37 36 35 36 40 43 43 42 40 40 40 40 40 40 41 42 42 41 38 35 32 29 26 22 20 20 20 20 19 18 18 19 19 19 19 19 18 17 16 15 14 14 15 15 16 17 19 21
13 14 14 14 14 15 16 17 18 19 20 21 21 21 21 21 22 23 24 25 26 26 27 29 30 30 30 31 32 32 31 29 27 27 29 30 31 31 31 33 36 40 41 40 40 40 41 40 40 40 41 41 41 39 35 32 29 26 23 22 21 21 21 20 19 18 19 20 21 21 20 19 19 17 16 15 14 15 16 17 18 20 22 24 24
14 14 14 15 15 16 16 17 18 19 20 20 20 21 21 22 23 24 25 25 26 26 27 29 30 30 31 31 33 33 32 30 29 28 27 26 26 28 30 32 33 34 34 36 38 39 39 38 37 37 36 35 34 31 29 26 24 23 21 22 23 23 21 19 18 19 21 22 22 21 20 19 17 16 15 16 17 18 19 21 23 25 26 27 28
14 14 15 15 15 15 16 17 18 18 19 19 20 21 21 22 23 24 25 25 26 26 27 28 30 31 31 31 32 32 31 30 30 29 28 27 27 28 28 28 28 29 30 32 33 33 32 32 31 30 29 28 26 25 24 23 22 22 22 23 23 22 20 20 21 22 23 23 22 20 19 17 16 16 17 19 20 22 23 26 28 28 29 32 37
14 14 14 14 15 15 16 16 16 17 18 19 20 21 22 23 23 23 24 25 25 26 27 28 30 30 30 30 31 31 31 31 31 31 31 31 30 29 28 27 27 28 28 28 28 27 27 27 26 25 24 24 23 23 23 23 23 22 23 23 22 21 21 23 25 25 23 22 21 19 17 17 17 19 21 23 24 27 29 31 31 33 37 43 49
13 13 14 14 15 15 15 16 17 17 18 19 20 21 22 22 23 23 23 24 25 25 26 27 28 28 28 29 29 30 30 31 32 33 33 32 30 29 28 28 28 28 27 26 26 26 25 25 24 24 23 23 24 24 24 23 22 22 21 21 21 22 24 26 26 24 22 21 19 18 18 19 21 23 25 28 30 33 34 35 38 44 51 57 63
13 13 14 14 15 15 16 17 17 17 18 19 20 20 20 21 21 22 23 23 24 24 24 24 25 26 26 27 27 28 29 31 32 33 32 30 29 29 28 28 27 26 25 25 25 25 24 24 24 24 24 25 25 25 23 22 21 21 21 22 23 26 27 27 25 22 21 19 18 18 20 23 25 28 31 34 36 37 39 44 52 59 65 72 79
Wind_Speed
85 84 84 83 82 82 81 81 81 81 82 82 83 83 85 86 88 89 91 92 94 95 96 98 99 101 103 105 106 108 110 111 111 112 112 112 113 113 113 114 115 115 116 117 117 118 119 119 120 121 122 123 124 124 125 126 126 126 127 127 127 127 128 128 129 130 131 133 135 136 138 141 142 145 147 149 151 154 156 159 161 163 165 166 167
84 83 82 82 81 80 80 80 80 80 81 81 82 82 83 85 86 87 89 90 92 93 95 97 99 101 103 106 107 109 111 112 113 113 113 113 113 114 114 115 115 116 117 118 118 119 120 121 121 122 123 124 124 125 126 127 127 128 128 128 128 129 129 129 130 130 131 132 133 134 135 137 138 139 140 142 143 144 146 148 150 152 154 155 157
83 82 81 80 80 79 79 80 80 80 81 81 82 83 83 84 85 86 87 89 91 93 95 97 99 102 104 106 108 110 111 112 113 114 114 114 115 115 116 116 117 117 118 118 119 119 120 122 122 123 124 124 125 126 126 127 128 129 129 130 130 130 130 131 131 131 132 132 133 134 135 136 137 138 139 140 141 141 142 144 145 147 148 149 150
81 80 80 80 80 80 80 81 81 82 82 83 84 84 85 86 87 88 89 90 92 94 96 98 101 103 105 106 108 110 111 112 113 114 114 114 115 115 116 116 117 118 119 120 120 120 121 122 122 123 124 125 125 126 127 128 128 129 130 130 131 131 132 132 132 132 133 133 134 135 136 136 137 138 139 140 141 142 142 143 144 145 146 146 147
80 80 81 81 82 82 83 84 84 85 85 86 86 87 87 88 89 90 91 93 94 96 98 100 102 103 105 106 107 109 111 112 112 113 113 114 114 115 115 116 117 118 119 120 120 121 122 122 123 123 124 125 126 126 127 128 129 130 130 131 132 132 133 133 133 134 134 134 135 136 136 137 138 139 140 141 141 142 143 144 145 145 146 146 147
82 82 83 84 85 86 87 88 88 89 89 90 90 91 91 91 92 93 94 95 96 97 99 100 102 103 104 105 107 108 110 111 112 112 113 113 113 114 115 115 116 117 117 119 120 120 121 122 122 123 124 125 126 126 127 128 129 130 130 131 132 132 133 134 134 135 135 136 136 137 137 138 139 140 140 141 142 143 144 144 145 146 147 147 147
85 86 87 87 88 89 89 89 90 90 91 91 91 92 92 92 93 94 94 95 96 97 98 98 99 101 102 103 105 106 107 108 109 110 110 111 111 112 113 114 114 115 116 116 117 119 120 121 122 122 123 124 125 126 127 128 129 129 130 131 131 132 133 134 134 135 136 136 137 138 138 139 140 140 141 142 143 143 144 145 145 146 147 147 147
87 87 87 87 86 86 86 86 86 86 87 87 88 88 89 89 89 90 91 92 93 94 94 95 96 98 99 100 102 102 103 104 105 105 106 106 107 107 108 109 110 111 112 113 114 115 117 118 119 120 121 122 123 124 125 126 127 128 129 130 131 132 133 133 134 135 136 137 137 138 139 139 140 141 142 143 143 144 144 145 145 146 147 147 147
83 82 80 80 79 79 79 79 79 79 80 81 81 82 83 84 85 86 87 89 90 92 93 94 95 97 98 99 100 100 100 101 101 102 102 102 103 103 104 105 106 107 108 109 111 112 113 115 117 118 119 120 121 123 124 125 126 127 128 129 130 131 132 133 134 135 136 136 137 138 139 140 140 141 141 142 143 143 144 144 145 146 147 148 147
74 73 72 71 71 72 72 73 74 75 75 76 77 79 80 82 84 85 87 89 91 93 94 95 96 98 99 100 100 100 100 100 100 100 100 100 101 101 102 102 103 105 106 107 108 109 111 112 114 115 116 118 120 121 122 123 124 125 126 127 128 130 131 132 133 134 135 136 137 138 138 139 140 140 141 141 142 142 143 143 144 145 146 147 147
68 67 67 67 68 68 69 71 72 74 75 77 79 80 82 84 86 87 89 91 94 95 96 97 98 99 100 100 100 100 100 99 99 99 99 99 99 100 100 101 101 102 104 105 106 107 109 110 112 113 115 116 118 119 121 122 123 124 125 126 127 128 129 130 131 132 133 134 135 136 137 138 138 139 139 140 140 141 141 141 142 143 143 144 145
65 65 66 67 68 69 70 72 74 76 78 80 82 84 85 87 89 90 92 94 96 97 97 98 98 99 100 100 100 100 99 99 98 98 98 98 98 98 98 99 100 100 101 103 104 105 106 108 110 111 113 114 116 117 119 120 121 122 123 124 125 126 127 128 129 130 131 132 133 134 135 135 136 137 137 138 138 139 139 139 139 140 141 142 143
64 65 67 68 70 71 73 75 77 79 81 83 85 87 88 90 91 93 94 95 97 97 97 97 98 99 99 99 99 99 98 98 97 97 96 96 96 96 97 97 98 98 99 100 101 102 104 105 107 109 110 112 114 115 116 118 119 121 122 123 123 124 125 126 127 128 128 129 130 131 132 132 133 133 134 135 135 136 136 136 136 137 138 138 139
65 67 69 71 73 74 76 78 81 83 85 87 88 90 91 92 93 94 94 95 96 96 96 97 98 98 99 99 98 98 98 97 96 96 95 95 95 95 95 95 95 96 97 98 99 100 101 103 104 106 107 109 110 112 113 115 116 117 119 120 121 122 122 123 124 124 125 126 127 128 128 129 129 129 130 131 131 132 132 132 132 133 133 134 134
67 70 72 74 76 78 80 81 84 86 88 89 90 91 92 93 94 94 94 94 95 95 95 96 97 98 98 99 98 97 97 96 95 94 93 93 93 93 93 93 93 94 94 95 96 97 98 100 101 102 103 105 106 108 109 110 112 113 114 116 117 118 119 119 120 120 121 122 123 123 124 125 125 125 126 126 127 127 127 128 128 128 128 129 130
70 72 75 76 78 80 82 84 86 88 90 91 92 93 94 94 94 93 93 94 94 94 95 95 96 97 98 98 97 96 95 94 93 92 91 91 91 91 91 91 91 91 92 92 93 94 95 96 97 98 99 101 102 103 104 105 107 108 109 110 112 113 114 115 115 116 116 117 118 119 120 120 120 121 121 121 121 122 123 123 123 123 124 124 126
73 75 77 79 81 83 85 87 89 90 91 92 93 93 94 93 93 92 93 94 94 94 94 94 95 95 95 95 95 93 92 91 90 89 89 88 88 88 88 88 88 88 88 89 90 91 91 92 93 94 95 96 97 98 99 100 101 103 104 105 106 107 108 109 110 110 111 112 112 113 113 114 115 115 115 115 116 116 117 118 118 119 119 120 121
76 77 79 81 84 86 89 90 92 92 93 93 93 94 93 93 92 92 92 93 94 93 92 91 91 92 92 92 91 90 89 88 87 85 85 85 84 84 84 84 84 84 84 85 86 87 87 88 89 90 91 92 93 94 95 96 96 97 99 100 101 102 102 103 104 104 105 105 106 107 107 108 109 109 110 110 111 112 112 113 114 115 116 116 117
78 80 82 85 87 90 92 93 94 94 94 93 94 94 93 92 91 92 92 92 91 90 89 88 88 88 88 88 87 86 85 83 82 81 81 81 80 79 79 79 79 80 80 81 81 82 83 84 84 85 86 87 88 89 90 91 92 93 94 94 95 96 97 98 99 99 100 100 101 102 103 104 105 105 106 107 108 109 109 110 111 112 112 113 114
81 83 86 88 90 92 93 94 94 94 94 94 94 94 93 92 91 91 90 90 89 88 86 85 85 84 84 83 83 82 80 78 77 77 76 76 75 75 76 76 76 76 77 77 78 78 79 80 80 81 82 83 84 85 86 87 88 89 90 90 91 92 93 94 95 95 96 97 98 99 100 101 102 103 104 105 105 106 107 107 108 108 109 110 111
84 86 88 90 92 93 94 94 94 94 94 95 95 94 93 92 91 89 88 87 86 85 84 82 81 80 80 79 78 77 75 74 73 73 72 72 72 72 73 73 73 73 74 74 75 75 76 77 77 78 78 79 80 81 82 83 84 85 86 87 88 89 90 91 92 92 93 94 95 96 97 98 99 100 101 101 102 103 104 104 105 106 107 108 110
87 89 91 93 94 95 95 95 95 95 95 95 95 94 92 91 89 88 86 85 84 82 80 79 77 76 75 74 73 73 71 70 69 69 69 69 69 70 71 71 71 72 72 73 73 73 74 74 74 75 75 76 76 78 79 80 81 82 83 84 85 86 87 88 89 89 91 91 92 93 94 95 96 97 98 99 99 101 102 103 104 105 106 108 109
90 91 93 94 95 96 96 96 95 96 96 96 95 94 92 90 88 86 84 82 80 79 77 75 73 72 71 70 69 69 68 67 66 66 65 66 67 68 68 69 70 70 71 71 72 72 72 72 72 72 73 73 74 75 76 77 78 79 80 81 82 83 84 85 86 87 88 89 90 91 92 93 94 95 96 97 98 100 101 102 103 104 106 107 108
92 93 95 96 97 97 96 96 96 97 97 96 95 93 91 89 86 84 82 80 78 75 73 71 70 69 68 67 65 65 65 64 63 63 63 64 65 66 66 67 68 69 69 70 70 70 70 70 70 71 72 73 73 74 75 76 76 77 78 79 80 81 82 83 85 86 87 88 89 90 91 92 93 95 96 97 98 99 100 102 103 103 104 106 107
93 95 96 97 97 97 97 97 97 97 97 96 94 92 90 87 85 82 80 78 75 73 71 69 67 66 65 64 63 62 62 61 61 61 61 62 63 64 64 65 66 66 67 68 68 68 69 69 70 70 71 72 73 73 74 74 75 76 77 78 79 80 82 83 84 85 87 87 88 89 90 92 93 94 96 97 97 98 99 101 102 102 103 103 104
95 97 97 98 97 97 97 98 98 98 96 95 93 91 89 86 83 81 78 75 73 71 69 66 65 63 62 61 61 60 60 59 59 59 60 61 61 62 62 63 64 64 65 66 67 67 68 69 69 70 71 71 72 73 73 74 75 76 77 78 79 80 81 83 84 85 86 87 88 89 90 92 93 94 95 96 96 96 97 98 99 100 100 100 100
97 97 98 98 97 97 98 99 98 97 95 93 92 90 87 85 82 79 76 73 71 69 67 65 63 62 61 60 60 59 58 58 58 58 59 59 60 60 60 61 62 63 64 65 65 66 67 68 68 69 70 71 72 72 73 74 75 76 77 78 79 80 82 83 84 85 86 87 88 89 90 91 92 93 93 94 94 94 94 95 96 96 96 96 96
97 98 98 98 98 98 99 99 98 96 94 92 90 89 86 84 81 77 74 71 68 67 65 63 62 61 60 59 58 58 57 57 57 58 58 58 58 58 58 59 60 61 62 63 64 65 66 67 68 69 69 70 71 72 73 74 75 76 77 78 79 80 81 82 83 84 85 86 87 87 88 89 89 90 90 91 91 91 91 92 92 92 92 92 93
98 99 98 98 99 99 99 99 97 95 93 91 89 88 85 82 79 75 72 69 66 64 63 62 61 60 59 58 58 57 57 56 56 56 56 56 57 57 57 57 58 59 60 61 63 64 65 66 67 68 69 69 70 71 72 73 74 75 77 78 79 79 80 81 82 83 83 84 84 85 85 86 86 87 87 88 89 89 89 89 89 89 89 89 89
99 99 99 99 99 99 99 98 96 94 92 91 89 87 84 80 76 73 69 67 64 62 61 60 60 59 58 58 57 57 56 55 55 55 55 55 55 55 55 55 56 57 58 60 61 62 63 64 65 66 67 68 69 70 71 72 73 74 75 76 77 78 79 79 80 80 81 81 81 81 82 83 84 85 85 86 86 87 87 87 87 87 86 86 86
99 99 99 99 99 99 99 97 95 93 92 90 88 85 82 78 74 70 67 65 62 61 60 59 58 58 57 57 57 56 55 54 54 53 53 53 53 54 54 54 55 56 57 58 59 60 61 62 63 65 66 67 67 69 70 71 72 72 73 74 75 76 76 77 77 77 78 78 78 79 80 80 81 82 82 82 83 84 85 85 85 84 84 83 82
100 100 100 99 99 99 98 97 95 93 92 90 87 84 80 75 71 68 65 63 61 59 58 57 57 56 56 56 55 55 55 54 53 53 52 52 52 53 54 54 54 55 56 56 57 58 59 61 62 63 64 65 66 66 67 68 69 70 71 71 72 73 74 74 74 74 75 75 76 77 77 78 78 79 79 79 80 81 83 83 83 81 80 80 79
101 100 100 100 99 99 98 96 94 92 91 88 85 81 77 72 69 66 63 60 59 58 57 56 56 55 54 54 54 54 54 54 53 52 52 52 53 53 53 53 53 54 54 55 56 57 58 59 60 61 62 63 64 65 66 66 67 67 68 69 69 70 70 71 71 72 73 74 74 75 75 75 75 76 76 77 78 79 79 79 78 77 76 76 76
101 101 100 100 99 99 97 95 93 91 89 86 82 77 73 70 67 64 61 58 57 57 56 55 54 54 53 53 53 53 53 53 52 52 52 52 52 52 52 52 52 53 54 55 55 57 58 58 59 60 61 62 62 63 63 64 65 65 66 66 66 67 68 68 69 70 71 72 73 73 72 72 72 73 74 75 75 76 76 75 74 73 73 73 73
102 101 100 99 99 98 96 95 92 89 86 82 78 74 71 68 65 61 58 57 56 55 55 54 53 53 53 52 52 52 51 51 51 52 51 51 51 51 51 51 52 53 53 54 55 56 57 58 58 59 60 61 61 61 62 62 63 63 63 64 65 65 66 67 68 69 70 70 71 70 70 69 69 70 71 72 72 72 72 72 71 70 70 70 70
102 101 100 99 98 97 95 93 90 86 82 78 75 72 69 66 62 59 57 56 55 54 53 53 53 52 52 51 51 50 50 50 50 50 50 50 50 50 51 51 52 53 54 54 55 56 56 57 58 58 59 59 60 60 60 61 61 62 62 63 64 64 65 66 67 68 69 68 68 67 67 67 67 67 68 68 69 69 68 67 68 68 67 66 66
102 100 99 98 97 95 93 90 86 82 78 75 72 69 66 63 60 57 56 55 54 53 52 52 52 51 51 50 50 50 50 50 49 49 49 49 49 50 50 51 52 53 53 54 55 55 56 57 57 57 58 58 59 59 59 60 61 61 62 63 63 63 64 65 65 66 66 65 64 64 64 64 64 64 64 65 66 66 65 64 64 65 64 63 63
101 99 98 97 95 93 89 86 82 78 74 71 69 66 64 61 58 56 55 54 53 52 51 51 50 50 50 50 49 49 49 49 49 49 49 49 49 49 50 51 51 52 52 53 54 55 55 56 56 56 57 57 58 58 59 59 60 61 61 62 62 62 62 63 63 63 63 62 61 61 62 62 63 62 62 63 63 63 63 62 61 62 62 61 60
99 98 97 95 92 88 84 81 77 74 71 68 66 64 61 59 57 56 55 53 52 51 50 50 49 49 49 48 48 48 49 49 49 48 49 49 49 50 50 50 51 51 52 53 54 54 54 55 55 55 56 57 57 58 58 59 59 60 60 60 60 60 60 60 60 60 60 59 59 60 60 60 60 60 60 60 60 59 59 59 59 58 58 58 57
98 96 94 91 87 83 79 76 73 71 68 66 64 62 59 57 56 55 54 53 52 51 50 49 49 48 48 48 47 48 48 48 48 48 48 48 49 49 49 49 50 51 52 52 53 53 53 54 54 55 55 56 57 57 57 58 58 58 58 58 58 58 57 57 57 58 58 58 58 59 58 58 57 58 58 57 56 55 55 56 56 55 54 54 53
95 92 89 85 81 77 75 72 70 68 66 64 62 59 57 55 55 54 54 53 51 50 49 49 48 48 48 47 47 47 47 47 47 48 47 47 47 47 48 49 50 50 50 51 52 52 52 52 53 54 54 55 55 55 55 55 56 56 56 56 56 56 55 55 55 55 56 57 57 56 56 55 54 55 55 54 53 53 53 53 52 51 50 50 50
89 86 82 79 76 73 71 69 67 65 63 62 60 58 56 54 54 53 52 52 51 49 49 48 48 48 48 47 47 47 46 46 46 46 46 46 46 47 47 48 48 48 49 50 50 51 51 51 52 52 53 53 53 53 53 54 54 54 54 54 54 54 53 53 54 54 54 55 55 53 52 52 52 51 51 51 51 51 50 49 48 47 47 47 47
82 80 77 74 72 70 68 66 64 63 61 59 58 56 55 53 52 52 51 50 50 49 49 48 48 48 48 47 47 46 46 46 46 46 46 46 46 46 46 46 47 47 48 49 49 50 50 50 51 51 51 52 52 52 52 52 52 52 52 52 52 52 52 52 52 52 53 52 51 50 50 49 48 48 48 48 47 47 46 45 44 44 44 44 44
77 75 73 71 69 67 65 63 62 60 59 58 56 55 54 53 52 51 50 49 49 49 48 48 48 48 48 47 46 46 46 47 47 46 46 45 45 45 46 46 46 47 47 48 48 49 49 49 50 50 50 50 50 50 50 50 51 51 51 51 51 51 51 51 51 50 49 49 48 47 47 46 45 45 45 44 43 42 41 42 42 41 42 42 41
73 71 70 68 66 64 63 61 60 59 57 56 55 55 54 53 51 50 50 49 49 48 48 48 48 48 47 47 46 47 47 47 47 46 46 45 46 46 46 46 46 46 47 48 48 48 48 48 48 48 48 48 48 48 49 49 49 49 50 50 50 50 49 49 48 47 46 45 45 45 44 43 42 42 41 40 39 39 38 38 39 39 39 39 38
70 69 67 65 64 62 61 59 59 57 56 55 54 54 53 52 51 51 50 49 49 48 47 47 47 47 47 46 46 47 47 47 46 46 46 47 47 47 46 46 46 46 47 47 47 47 47 47 47 46 46 46 47 47 47 47 47 48 49 49 48 48 47 46 44 43 42 42 42 42 41 40 39 38 37 36 36 35 35 35 35 35 35 36 36
67 66 64 63 62 60 59 58 57 56 55 55 54 53 52 52 51 51 50 49 49 48 48 47 47 47 46 46 46 47 47 47 46 47 47 47 47 46 46 46 46 46 46 46 46 46 46 46 45 45 45 45 45 45 46 46 46 47 47 46 45 45 44 42 41 40 39 39 39 39 38 37 35 34 33 33 32 32 32 32 32 32 32 33 33
65 64 62 61 60 59 58 57 56 56 55 54 53 52 52 52 51 51 50 50 49 49 48 47 47 47 46 46 46 47 47 46 46 47 47 46 46 46 46 46 45 45 45 45 45 45 45 45 45 44 44 44 44 44 44 44 44 44 43 42 41 41 40 38 37 37 36 36 36 35 34 32 31 30 30 29 29 28 28 28 29 29 30 30 31
63 62 61 60 59 58 57 56 56 55 54 53 53 52 52 52 51 51 50 50 49 49 48 48 47 47 47 46 46 46 46 46 46 46 46 46 46 46 46 45 45 45 45 45 45 44 44 44 43 43 43 42 42 42 42 42 41 40 39 38 37 37 36 35 34 34 33 33 32 31 29 28 27 27 26 26 25 25 25 26 26 27 27 28 29
61 60 59 58 58 57 56 55 55 54 54 53 52 52 52 51 51 51 50 50 49 49 48 48 47 47 47 46 46 46 46 46 46 46 46 46 46 45 45 44 44 44 44 44 43 43 42 42 41 41 41 41 40 40 40 39 37 35 34 34 33 33 32 31 31 31 30 29 28 26 25 24 24 23 22 22 22 22 23 23 24 25 26 27 30
60 59 58 57 56 56 55 54 54 54 53 53 52 52 52 51 51 50 50 50 50 49 48 48 47 47 47 46 46 46 45 45 45 45 46 45 45 44 44 44 44 43 43 42 41 41 40 40 39 39 39 38 38 37 36 35 33 32 31 30 30 29 29 28 28 27 26 25 23 22 21 21 20 19 19 19 20 20 21 21 22 24 26 29 31
Wind_Direction
280 280 279 278 277 276 275 274 273 272 271 271 270 269 268 267 266 265 264 264 263 263 263 263 263 263 263 263 263 264 264 264 265 265 265 265 265 266 266 266 266 267 267 267 267 268 268 268 268 268 268 269 269 269 269 269 269 269 269 270 270 270 270 270 270 270 270 271 271 271 271 271 272 272 272 272 272 273 273 273 274 274 275 275 276
281 280 279 278 277 276 275 274 274 273 272 272 271 270 270 269 268 268 267 266 265 265 264 264 264 263 263 263 263 263 264 264 265 265 266 266 266 267 267 267 267 267 267 267 268 268 268 268 268 268 268 269 269 269 270 270 270 270 270 270 270 270 270 270 270 270 270 271 271 271 272 272 272 272 273 273 273 273 274 274 274 275 275 276 276
280 280 279 277 277 276 275 275 274 274 273 273 273 272 272 271 271 270 269 269 268 267 266 265 265 264 264 264 264 264 264 264 265 265 266 266 267 267 267 268 268 268 268 268 268 268 268 268 268 269 269 269 269 269 270 270 270 270 271 271 271 271 271 271 271 271 271 271 271 271 272 272 273 273 273 273 274 274 274 274 275 275 276 276 276
279 279 278 278 277 277 276 276 275 275 275 274 274 274 273 273 273 272 271 271 270 269 268 267 266 266 265 265 265 265 266 266 266 266 266 267 267 267 267 267 268 268 268 268 268 268 268 268 269 269 269 269 269 269 269 270 270 270 270 271 271 271 271 271 271 271 271 271 272 272 272 272 273 273 273 274 274 275 275 275 275 276 276 277 277
279 278 278 278 278 277 277 277 277 276 276 276 275 275 275 274 274 273 273 272 271 271 270 270 269 269 268 268 268 268 268 268 267 267 267 267 267 267 267 267 267 268 268 268 268 268 268 269 269 269 269 269 269 269 269 269 269 270 270 270 270 271 271 271 271 271 271 272 272 272 272 272 273 273 274 274 274 275 275 276 276 277 277 277 278
279 278 278 278 278 277 277 277 277 277 277 277 276 276 276 275 275 275 274 273 273 272 272 271 271 271 271 270 270 269 269 269 269 268 268 268 268 268 268 268 268 268 268 268 268 268 268 268 269 269 269 269 269 269 269 269 269 269 269 270 270 270 270 271 271 271 271 272 272 272 272 273 273 273 274 274 274 275 275 276 276 277 277 278 278
279 279 279 278 278 277 277 277 277 276 276 276 276 276 276 276 276 275 275 275 274 274 273 273 273 272 272 271 270 270 270 270 270 269 269 269 269 269 269 268 268 268 268 268 268 268 268 268 268 268 268 268 268 268 268 268 268 269 269 269 269 269 270 270 270 270 271 271 271 272 272 273 273 273 274 274 275 275 276 276 277 277 278 278 279
280 279 279 278 278 277 277 276 276 276 276 276 276 276 276 276 276 276 276 276 276 276 275 275 274 274 273 272 272 271 271 271 271 271 271 270 270 270 269 269 269 269 268 268 268 268 268 268 268 268 268 268 268 268 268 268 268 268 268 268 269 269 269 269 270 270 270 271 271 271 272 272 273 273 274 274 275 275 276 277 277 278 278 278 279
280 279 278 278 277 277 276 276 276 276 276 276 276 276 276 276 276 276 277 277 277 277 277 277 276 276 276 275 275 274 274 274 273 273 273 272 272 271 271 270 270 269 269 268 268 267 267 267 267 267 267 267 267 267 267 267 267 267 267 268 268 268 268 269 269 269 270 270 271 271 271 272 272 273 273 274 275 275 276 276 277 278 278 279 279
279 278 278 277 277 276 276 276 277 277 277 277 277 277 277 278 278 278 278 279 279 279 278 278 278 278 278 278 277 277 277 276 276 275 275 274 273 273 272 271 270 270 269 268 268 267 267 267 267 266 266 266 266 266 266 267 267 267 267 267 267 267 268 268 268 269 269 270 270 270 271 271 272 273 273 274 275 275 276 276 277 278 279 279 280
279 278 278 278 278 278 278 278 279 279 279 279 279 279 279 280 280 280 280 280 280 280 280 280 280 280 279 279 279 278 278 278 277 276 276 275 274 274 273 272 271 270 269 268 268 267 267 266 266 266 266 266 266 266 266 266 266 266 266 266 266 267 267 267 268 268 269 269 270 270 271 271 272 273 273 274 275 275 276 277 277 278 279 279 280
279 279 280 280 280 280 280 281 281 281 281 281 281 281 281 281 281 282 281 281 281 281 281 281 281 281 280 280 280 279 279 278 278 277 277 276 275 274 273 272 271 270 269 269 268 267 267 266 266 265 265 265 265 265 265 266 266 266 266 266 266 266 267 267 267 268 268 269 270 270 271 272 272 273 274 274 275 275 276 277 277 278 279 279 280
280 280 281 281 282 282 282 282 282 282 282 282 282 282 282 283 283 283 283 283 282 283 283 283 282 282 281 281 281 280 280 279 279 278 278 277 276 275 274 273 272 271 270 269 268 267 266 266 265 265 265 265 265 265 265 265 265 266 266 266 266 267 267 267 268 268 269 269 270 271 271 272 272 273 274 275 275 276 276 277 278 278 279 279 280
281 281 282 282 283 283 283 283 283 283 283 283 284 284 284 285 285 285 285 284 284 284 284 284 284 283 283 282 282 281 281 280 280 279 278 278 277 275 274 273 272 271 270 269 268 267 266 266 265 265 265 264 265 265 265 265 265 266 266 267 267 267 267 268 268 269 269 270 270 271 272 272 273 273 274 275 276 276 277 278 278 279 279 280 280
282 282 283 283 284 284 284 284 284 285 285 286 286 287 287 287 287 287 287 286 286 286 286 285 285 284 284 283 283 282 282 281 280 280 279 278 277 275 274 273 272 270 269 268 268 267 266 266 265 265 265 265 265 265 265 266 266 266 267 267 267 268 268 269 269 269 270 270 271 271 272 273 273 274 275 275 276 277 278 278 279 279 280 281 281
283 283 283 284 284 285 285 286 286 287 288 289 289 289 289 289 288 288 289 288 288 288 287 286 286 285 284 284 283 283 282 281 280 279 278 277 276 274 273 272 271 270 269 268 268 267 266 266 266 266 266 266 266 266 266 266 267 267 267 268 268 268 269 269 270 270 270 271 271 272 273 273 274 275 275 276 277 277 278 279 279 280 280 281 282
284 284 285 285 286 287 288 288 289 289 290 291 291 291 290 290 290 290 290 290 290 289 288 287 286 285 284 284 283 282 282 281 280 279 277 276 275 273 272 271 270 269 268 268 267 267 266 266 266 266 266 267 267 267 267 267 267 268 268 268 269 269 270 270 271 271 271 272 272 273 274 274 275 275 276 277 277 278 279 279 280 280 281 282 282
286 287 287 288 289 289 290 290 291 291 292 292 292 292 291 291 292 292 292 292 291 290 289 287 286 285 284 283 282 282 281 280 279 278 276 275 274 273 271 270 269 268 268 267 267 267 266 267 267 267 267 267 267 268 268 268 268 269 269 269 270 270 271 271 272 272 273 273 274 274 275 275 276 276 277 277 278 279 279 280 281 281 282 283 283
288 289 289 290 290 290 291 292 292 293 293 293 293 293 293 293 294 294 294 293 292 290 289 288 286 285 284 283 282 281 280 279 278 277 275 274 273 272 271 270 269 268 268 267 267 267 267 267 267 267 267 268 268 268 268 269 269 269 270 270 271 271 271 272 272 273 274 274 275 275 276 276 277 277 278 278 279 280 280 281 281 282 283 283 284
289 289 290 290 291 291 292 293 294 294 295 295 294 294 295 295 296 296 295 294 292 291 290 288 287 285 284 283 282 281 280 279 278 276 275 274 273 272 271 270 269 269 268 268 267 267 267 267 267 268 268 268 268 269 269 269 269 270 270 271 271 272 272 273 273 274 274 275 276 276 277 277 278 278 279 279 280 281 281 282 282 283 284 285 285
290 290 291 291 292 292 293 294 295 295 295 295 295 296 296 297 297 297 296 295 293 292 290 289 287 286 284 283 282 281 280 278 277 276 275 274 273 272 271 270 269 269 268 268 268 268 268 268 268 268 269 269 269 269 269 269 270 270 270 271 271 272 272 273 274 274 275 275 276 276 277 278 278 279 280 280 281 282 282 283 284 285 285 286 286
290 291 292 292 293 294 295 295 296 296 296 296 296 297 298 299 298 298 297 295 294 292 291 289 288 286 285 283 282 281 279 278 277 276 275 274 272 271 271 270 269 269 268 268 268 269 269 269 269 270 270 270 270 270 270 270 270 271 271 271 272 272 273 274 274 275 275 276 277 277 278 279 279 280 281 282 283 283 284 285 285 286 286 286 286
291 292 293 293 294 295 296 296 297 297 297 297 298 299 300 300 299 298 297 296 295 293 292 290 288 287 285 284 282 281 279 278 277 275 274 273 272 271 270 270 269 269 269 269 269 270 270 270 271 270 270 270 270 270 270 270 271 271 272 273 273 274 274 275 276 276 277 278 278 279 280 280 281 282 282 283 284 284 285 285 286 286 287 287 287
292 293 294 295 295 296 297 297 298 298 298 299 300 301 301 301 300 299 299 297 296 294 292 291 289 287 285 284 282 281 279 278 277 275 274 273 272 271 270 269 269 269 269 270 270 270 271 271 271 271 271 271 271 271 271 272 272 273 274 274 275 276 276 277 277 278 278 279 280 280 281 282 283 283 284 284 285 285 286 287 287 287 288 288 289
293 294 295 295 296 297 298 298 299 299 299 300 301 302 302 302 301 301 300 298 297 295 293 291 289 287 286 284 283 281 280 279 277 275 274 273 272 271 270 269 269 269 269 270 270 270 271 271 271 271 271 271 272 272 272 273 274 274 275 275 276 277 278 278 279 279 280 281 281 282 283 283 284 284 285 286 286 287 288 288 289 289 289 289 290
294 294 295 296 297 298 298 299 299 299 300 301 302 303 303 303 302 302 300 299 297 295 293 292 290 288 286 285 284 282 281 279 278 276 274 273 272 271 270 270 269 269 269 269 269 270 270 270 271 271 271 272 272 273 273 274 274 275 276 276 277 278 278 279 279 280 281 282 283 283 284 285 285 286 286 287 287 288 288 289 289 290 290 291 292
294 295 295 296 297 298 299 299 300 300 301 302 303 303 303 303 303 302 300 299 297 295 293 291 290 288 287 286 285 283 282 280 278 276 274 273 273 272 271 270 269 269 269 270 270 271 271 271 272 272 272 273 273 274 274 275 276 276 277 277 278 278 279 280 281 281 282 283 283 284 285 285 286 287 287 288 288 288 288 289 290 291 292 293 294
294 295 296 297 298 299 300 300 300 301 302 303 304 304 304 303 303 301 300 298 296 294 293 291 290 289 288 286 285 284 282 280 278 277 276 275 274 273 272 271 270 270 270 271 271 271 272 272 272 273 273 274 274 275 276 276 277 277 277 278 278 279 280 281 281 282 283 283 284 284 285 286 287 288 288 289 289 289 290 291 292 293 293 294 294
294 295 297 298 299 300 300 300 301 302 303 304 304 304 304 303 302 301 299 297 295 293 292 291 290 289 288 287 285 284 282 281 279 278 277 276 275 274 273 272 271 271 271 272 272 272 273 273 274 274 274 275 275 276 276 277 277 278 278 279 279 280 281 281 282 283 283 284 285 286 287 288 289 289 289 290 290 291 292 293 293 293 294 294 295
295 296 298 299 300 300 300 300 301 302 303 304 304 303 303 302 301 300 298 296 294 292 291 291 290 289 288 287 286 284 282 281 279 278 277 276 276 275 275 274 273 273 273 273 273 273 274 274 275 275 275 276 276 277 277 278 278 279 279 280 281 281 282 283 283 284 285 286 287 288 288 289 289 289 290 291 292 293 294 294 294 294 295 297 298
295 297 298 299 299 299 300 301 302 303 304 304 303 303 302 301 300 298 297 295 293 292 291 290 290 289 288 287 285 284 282 281 279 278 277 277 276 275 275 274 274 273 273 273 274 274 274 275 275 275 276 276 277 277 278 278 279 279 280 281 282 283 283 284 285 286 287 287 288 288 288 289 289 290 292 293 294 295 295 295 295 296 298 299 299
296 297 298 299 299 299 300 301 302 303 303 303 302 302 301 300 299 297 295 293 292 291 291 290 289 288 287 286 285 284 282 281 279 278 277 276 276 275 274 274 274 274 275 275 275 275 275 275 276 276 276 277 277 278 278 279 280 280 281 282 283 284 285 286 286 287 287 287 288 288 289 290 291 293 294 295 295 295 295 296 297 298 299 300 300
297 298 298 299 299 299 300 301 302 303 302 302 301 301 300 299 297 296 294 293 291 290 290 288 287 287 286 285 284 283 282 282 281 279 278 277 276 276 276 276 276 277 277 277 277 276 276 277 277 277 278 278 278 279 279 280 281 282 282 283 284 285 286 286 287 287 287 288 288 289 291 292 294 295 296 295 295 295 296 297 298 300 301 301 301
297 297 298 298 299 299 300 301 301 301 301 301 300 299 298 297 296 295 293 291 290 289 288 287 286 286 285 284 283 283 283 282 281 280 280 279 278 278 278 278 278 278 278 278 278 278 278 278 279 279 279 280 280 281 281 282 283 283 284 285 285 286 286 287 287 288 289 289 291 292 294 295 296 296 296 295 296 296 297 299 300 301 302 302 302
297 297 298 298 299 299 300 300 300 300 300 299 299 298 297 296 295 293 292 290 289 288 287 286 285 284 284 283 283 282 282 282 281 280 280 280 280 279 279 279 279 279 279 279 279 280 280 280 281 281 281 282 282 283 284 284 285 285 286 286 287 287 287 288 289 290 291 292 293 295 296 296 296 296 296 296 297 298 299 301 302 302 303 303 303
296 297 297 298 298 299 299 299 299 299 299 298 297 297 296 295 293 292 290 289 288 287 286 285 284 283 283 283 282 282 281 281 280 280 280 280 280 280 280 280 279 279 280 280 281 282 282 282 282 282 283 283 284 285 285 286 286 286 287 287 287 288 289 290 291 292 293 294 295 296 296 296 296 296 297 298 299 300 301 302 303 303 303 304 304
296 296 296 297 297 298 298 298 298 297 297 296 296 295 294 293 292 290 289 288 287 286 285 284 283 283 282 282 282 282 281 280 280 280 279 279 279 279 279 279 279 279 280 281 281 282 281 282 282 283 284 284 285 285 286 286 286 287 287 288 289 290 291 292 292 293 294 295 296 297 297 297 297 298 300 301 301 302 303 304 304 303 304 305 305
295 295 296 296 296 296 296 296 296 296 295 295 294 293 292 291 289 288 288 287 286 285 284 282 282 282 282 282 282 282 281 280 280 280 279 279 279 278 278 278 279 280 280 281 281 281 282 282 283 284 285 285 285 285 286 286 287 287 288 289 290 291 292 293 294 294 295 297 298 299 299 299 300 302 303 303 303 303 304 304 304 304 305 306 307
294 294 295 295 295 295 295 295 294 294 294 293 292 291 290 289 288 287 287 286 285 284 283 282 281 281 281 281 281 281 281 280 280 280 280 280 280 280 280 281 281 282 281 281 282 283 283 284 284 284 284 285 285 285 286 287 287 289 290 291 292 292 293 295 296 297 298 299 300 300 300 301 303 304 304 303 303 304 305 305 306 307 308 309 309
293 293 293 293 293 294 293 293 293 292 292 291 290 289 288 287 286 286 286 285 285 284 283 281 281 280 280 280 280 280 280 280 280 280 280 280 281 282 282 282 282 282 282 282 283 283 283 284 284 284 284 285 285 286 287 288 289 290 291 292 293 294 296 297 298 299 300 301 301 301 302 304 305 304 303 303 305 306 306 307 308 309 310 310 310
292 292 292 292 292 292 292 291 291 291 290 289 288 287 286 285 285 285 285 285 284 283 282 281 280 279 279 279 279 280 280 280 280 280 281 282 282 282 281 281 281 282 282 283 283 283 283 284 284 284 285 286 287 288 289 290 291 292 293 294 295 297 298 299 300 301 301 301 301 303 304 305 305 304 304 305 307 308 308 309 310 311 311 310 310
291 291 291 291 291 290 290 290 289 289 288 287 286 285 284 284 284 284 284 284 283 283 282 281 280 279 279 279 280 281 281 282 282 282 281 281 280 280 280 281 282 282 282 282 282 282 283 284 284 285 286 287 288 289 291 292 293 294 295 296 297 299 300 301 301 302 302 302 303 305 305 305 305 305 307 308 309 309 310 312 312 311 311 311 314
290 289 289 289 289 289 289 288 288 287 286 285 284 284 283 283 283 283 283 282 282 281 281 280 280 279 279 280 281 282 283 283 282 282 282 282 282 282 282 282 282 281 281 282 282 283 283 284 285 286 287 289 290 291 293 294 295 296 297 298 299 300 301 302 302 302 303 303 305 305 305 306 307 308 309 309 310 311 313 313 312 313 314 316 319
288 288 288 288 288 288 288 287 286 286 285 284 283 283 283 283 282 282 282 281 281 280 280 280 280 280 280 281 282 283 283 283 283 283 284 284 284 283 282 282 282 282 282 283 283 284 284 286 287 288 290 291 293 294 295 296 297 298 298 299 299 300 302 302 303 303 304 305 305 305 306 308 309 309 310 311 313 313 314 314 314 317 319 321 323
288 288 287 287 287 287 286 286 285 284 283 282 282 282 282 282 282 281 281 281 280 280 280 279 279 280 280 281 282 282 282 283 284 285 285 284 283 282 283 283 284 285 284 284 285 286 287 289 290 291 292 293 294 295 296 297 297 298 298 299 300 301 302 303 303 304 305 306 306 307 308 310 310 311 312 314 314 315 316 317 319 322 324 325 326
287 287 286 286 286 285 285 284 283 282 282 281 281 281 281 281 281 281 281 280 280 280 279 279 279 279 280 280 281 281 282 283 283 284 283 283 283 284 285 285 285 285 285 286 287 288 289 290 291 292 293 294 295 296 296 297 297 298 298 299 301 302 303 303 304 305 306 307 308 309 309 311 312 313 315 316 316 318 320 322 324 326 327 328 330
286 285 285 285 284 284 283 282 282 281 281 280 280 280 280 280 280 280 280 280 279 279 279 278 278 279 279 279 280 280 281 281 282 283 283 284 284 285 285 285 285 285 286 287 288 288 289 290 291 292 293 294 294 295 296 297 297 297 299 301 302 302 303 304 306 307 308 309 309 309 311 313 315 316 317 318 320 323 325 326 328 330 331 333 335
284 284 284 283 283 282 282 281 280 280 280 280 280 280 279 279 279 279 279 279 279 278 278 278 278 278 278 278 279 279 280 281 282 282 283 284 284 284 284 284 285 286 287 287 287 288 289 290 291 292 293 294 294 295 296 296 296 298 300 302 302 303 304 306 308 309 309 309 309 311 313 315 317 318 321 324 326 327 329 331 333 335 336 339 341
283 283 282 282 281 281 280 280 280 279 279 279 279 279 279 278 278 278 278 278 278 277 277 277 277 277 277 278 278 279 280 281 281 282 283 283 284 284 284 285 286 286 286 286 287 288 290 291 292 293 293 294 294 295 295 295 297 299 301 302 302 304 306 308 308 308 308 309 311 313 315 317 320 324 327 328 330 331 334 336 338 340 343 346 348
282 282 281 281 280 280 279 279 279 279 279 279 278 278 278 278 278 278 278 278 278 277 277 277 277 277 277 278 278 279 280 280 281 282 282 283 283 284 285 286 286 285 286 287 288 289 290 291 292 292 293 294 294 294 295 297 299 301 302 303 304 306 307 308 307 307 309 311 313 316 319 323 327 330 331 332 334 337 340 342 345 348 352 353 354
281 281 280 280 279 279 279 279 278 278 278 278 278 277 277 277 277 277 277 277 277 277 277 277 277 277 277 278 278 279 280 280 281 281 281 282 283 284 284 284 284 285 286 287 288 289 290 291 291 292 293 293 293 295 296 298 301 302 303 304 306 307 307 306 306 308 311 313 316 320 326 331 333 334 334 338 342 345 347 351 355 357 358 357 354